• In Denmark
  • List of Countries
  • For 7 days
  • Water Temperature
  • Satellite Maps
  • Weather Map
  • Weather Widgets
  • user-avatar
    Login

    Hourly Weather Bregenz

    Today, 21 August, Monday

    Time Temperature Precipitation Wind Pressure Humidity
    00:00 +6°C° 0 mm 1 mps 651 mmHg 85%
    01:00 +7°C° 0 mm 1 mps 650 mmHg 86%
    02:00 +6°C° 0 mm 1 mps 650 mmHg 86%
    03:00 +6°C° 0 mm 1 mps 650 mmHg 87%
    04:00 +6°C° 0 mm 1 mps 650 mmHg 87%
    05:00 +7°C° 0 mm 1 mps 650 mmHg 83%
    06:00 +8°C° 0 mm 1 mps 650 mmHg 78%
    07:00 +9°C° 0 mm 1 mps 651 mmHg 71%
    08:00 +10°C° 0 mm 1 mps 651 mmHg 66%
    09:00 +12°C° 0 mm 1 mps 651 mmHg 60%
    10:00 +14°C° 0 mm 2 mps 652 mmHg 55%
    11:00 +14°C° 0 mm 1 mps 652 mmHg 55%
    12:00 +15°C° 0 mm 1 mps 652 mmHg 54%
    13:00 +15°C° 0 mm 1 mps 652 mmHg 53%
    14:00 +15°C° 0 mm 1 mps 652 mmHg 53%
    15:00 +16°C° 0 mm 1 mps 651 mmHg 52%
    16:00 +16°C° 0 mm 1 mps 651 mmHg 52%
    17:00 +14°C° 0 mm 1 mps 651 mmHg 60%
    18:00 +13°C° 0 mm 1 mps 651 mmHg 68%
    19:00 +11°C° 0 mm 1 mps 650 mmHg 76%
    20:00 +10°C° 0 mm 1 mps 650 mmHg 78%
    21:00 +9°C° 0 mm 1 mps 650 mmHg 80%
    22:00 +8°C° 0 mm 1 mps 650 mmHg 82%
    23:00 +8°C° 0 mm 1 mps 650 mmHg 82%

    Tomorrow, 22 August, Tuesday

    Time Temperature Precipitation Wind Pressure Humidity
    00:00 +8°C° 0 mm 1 mps 650 mmHg 82%
    01:00 +8°C° 0 mm 1 mps 650 mmHg 82%
    02:00 +8°C° 0 mm 1 mps 649 mmHg 81%
    03:00 +7°C° 0 mm 1 mps 649 mmHg 80%
    04:00 +7°C° 0 mm 1 mps 649 mmHg 80%
    05:00 +8°C° 0 mm 1 mps 649 mmHg 78%
    06:00 +10°C° 0 mm 1 mps 650 mmHg 76%
    07:00 +11°C° 0 mm 1 mps 650 mmHg 75%
    08:00 +13°C° 0 mm 1 mps 650 mmHg 68%
    09:00 +15°C° 0 mm 1 mps 651 mmHg 61%
    10:00 +19°C° 0 mm 1 mps 652 mmHg 55%
    11:00 +19°C° 0 mm 1 mps 651 mmHg 53%
    12:00 +20°C° 0 mm 1 mps 651 mmHg 51%
    13:00 +20°C° 0 mm 2 mps 651 mmHg 49%
    14:00 +20°C° 0 mm 2 mps 651 mmHg 51%
    15:00 +20°C° 0 mm 2 mps 651 mmHg 53%
    16:00 +20°C° 0 mm 2 mps 651 mmHg 54%
    17:00 +18°C° 0 mm 2 mps 650 mmHg 64%
    18:00 +16°C° 0 mm 1 mps 650 mmHg 74%
    19:00 +14°C° 0 mm 1 mps 649 mmHg 84%
    20:00 +13°C° 0 mm 1 mps 649 mmHg 86%
    21:00 +12°C° 0 mm 1 mps 649 mmHg 88%
    22:00 +11°C° 0 mm 1 mps 649 mmHg 91%
    23:00 +10°C° 0 mm 1 mps 649 mmHg 89%

    Day after tomorrow, 23 August, Wednesday

    Time Temperature Precipitation Wind Pressure Humidity
    00:00 +10°C° 0 mm 1 mps 648 mmHg 87%
    01:00 +10°C° 0 mm 1 mps 648 mmHg 85%
    02:00 +10°C° 0 mm 1 mps 648 mmHg 82%
    03:00 +10°C° 0 mm 1 mps 648 mmHg 80%
    04:00 +10°C° 0 mm 1 mps 648 mmHg 78%
    05:00 +11°C° 0 mm 1 mps 648 mmHg 76%
    06:00 +12°C° 0 mm 1 mps 648 mmHg 74%
    07:00 +12°C° 0 mm 1 mps 649 mmHg 72%
    08:00 +15°C° 0 mm 1 mps 649 mmHg 64%
    09:00 +19°C° 0 mm 1 mps 650 mmHg 56%
    10:00 +21°C° 0 mm 1 mps 651 mmHg 48%
    11:00 +22°C° 0 mm 1 mps 651 mmHg 45%
    12:00 +23°C° 0 mm 1 mps 651 mmHg 43%
    13:00 +24°C° 0 mm 1 mps 651 mmHg 41%
    14:00 +24°C° 0 mm 2 mps 651 mmHg 42%
    15:00 +24°C° 0 mm 2 mps 651 mmHg 43%
    16:00 +24°C° 0 mm 2 mps 651 mmHg 44%
    17:00 +21°C° 0 mm 1 mps 650 mmHg 53%
    18:00 +19°C° 0 mm 1 mps 650 mmHg 63%
    19:00 +16°C° 0 mm 1 mps 649 mmHg 72%
    20:00 +15°C° 0 mm 1 mps 650 mmHg 72%
    21:00 +14°C° 0 mm 2 mps 650 mmHg 72%
    22:00 +13°C° 0 mm 2 mps 650 mmHg 72%
    23:00 +13°C° 0 mm 2 mps 649 mmHg 71%

    24 August, Thursday

    Time Temperature Precipitation Wind Pressure Humidity
    00:00 +13°C° 0 mm 2 mps 649 mmHg 69%
    01:00 +13°C° 0 mm 2 mps 649 mmHg 67%
    02:00 +12°C° 0 mm 2 mps 649 mmHg 67%
    03:00 +12°C° 0 mm 2 mps 649 mmHg 66%
    04:00 +12°C° 0 mm 2 mps 649 mmHg 65%
    05:00 +13°C° 0 mm 2 mps 649 mmHg 66%
    06:00 +13°C° 0 mm 2 mps 649 mmHg 67%
    07:00 +14°C° 0 mm 2 mps 649 mmHg 69%
    08:00 +16°C° 0 mm 1 mps 650 mmHg 63%
    09:00 +19°C° 0 mm 1 mps 651 mmHg 58%
    10:00 +21°C° 0 mm 1 mps 651 mmHg 53%
    11:00 +22°C° 0 mm 1 mps 652 mmHg 53%
    12:00 +21°C° 0 mm 2 mps 652 mmHg 52%
    13:00 +23°C° 0 mm 2 mps 652 mmHg 52%
    14:00 +23°C° 0.1 mm 2 mps 652 mmHg 55%
    15:00 +22°C° 0.1 mm 1 mps 651 mmHg 57%
    16:00 +22°C° 0.1 mm 1 mps 651 mmHg 60%
    17:00 +20°C° 0.1 mm 1 mps 651 mmHg 66%
    18:00 +19°C° 0.1 mm 1 mps 650 mmHg 72%
    19:00 +15°C° 0.1 mm 0 mps 650 mmHg 78%
    20:00 +15°C° 0 mm 1 mps 650 mmHg 78%
    21:00 +15°C° 0 mm 1 mps 650 mmHg 78%
    22:00 +14°C° 0 mm 2 mps 650 mmHg 78%
    23:00 +14°C° 0 mm 2 mps 650 mmHg 77%

    25 August, Friday

    Time Temperature Precipitation Wind Pressure Humidity
    00:00 +14°C° 0 mm 2 mps 650 mmHg 77%
    01:00 +13°C° 0 mm 2 mps 650 mmHg 77%
    02:00 +13°C° 0.1 mm 2 mps 650 mmHg 77%
    03:00 +13°C° 0.1 mm 2 mps 649 mmHg 77%
    04:00 +13°C° 0.1 mm 1 mps 649 mmHg 77%
    05:00 +13°C° 0 mm 2 mps 649 mmHg 77%
    06:00 +14°C° 0 mm 2 mps 649 mmHg 77%
    07:00 +15°C° 0 mm 2 mps 650 mmHg 77%
    08:00 +18°C° 0 mm 1 mps 650 mmHg 68%
    09:00 +21°C° 0 mm 1 mps 651 mmHg 60%
    10:00 +23°C° 0 mm 1 mps 651 mmHg 51%
    11:00 +24°C° 0 mm 1 mps 651 mmHg 48%
    12:00 +25°C° 0 mm 1 mps 652 mmHg 45%
    13:00 +26°C° 0 mm 1 mps 652 mmHg 42%
    14:00 +26°C° 0.1 mm 1 mps 651 mmHg 45%
    15:00 +26°C° 0.1 mm 1 mps 651 mmHg 47%
    16:00 +25°C° 0.1 mm 1 mps 651 mmHg 50%
    17:00 +23°C° 0.1 mm 1 mps 650 mmHg 58%
    18:00 +21°C° 0.1 mm 1 mps 650 mmHg 66%
    19:00 +19°C° 0.1 mm 1 mps 650 mmHg 74%
    20:00 +19°C° 0.2 mm 1 mps 649 mmHg 75%
    21:00 +17°C° 0.2 mm 2 mps 649 mmHg 76%
    22:00 +16°C° 0.2 mm 2 mps 649 mmHg 77%
    23:00 +16°C° 0 mm 2 mps 649 mmHg 78%

    26 August, Saturday

    Time Temperature Precipitation Wind Pressure Humidity
    00:00 +15°C° 0 mm 2 mps 649 mmHg 78%
    01:00 +15°C° 0 mm 2 mps 649 mmHg 79%
    02:00 +15°C° 0 mm 2 mps 649 mmHg 79%
    03:00 +14°C° 0 mm 2 mps 649 mmHg 79%
    04:00 +14°C° 0 mm 2 mps 648 mmHg 78%
    05:00 +15°C° 0 mm 2 mps 649 mmHg 77%
    06:00 +15°C° 0 mm 2 mps 649 mmHg 77%
    07:00 +16°C° 0 mm 2 mps 649 mmHg 76%
    08:00 +18°C° 0.1 mm 2 mps 649 mmHg 68%
    09:00 +21°C° 0.1 mm 1 mps 650 mmHg 60%
    10:00 +24°C° 0.1 mm 1 mps 651 mmHg 53%
    11:00 +25°C° 0.1 mm 1 mps 651 mmHg 50%
    12:00 +25°C° 0.1 mm 1 mps 651 mmHg 48%
    13:00 +26°C° 0.1 mm 1 mps 651 mmHg 46%
    14:00 +26°C° 0.3 mm 1 mps 650 mmHg 50%
    15:00 +25°C° 0.3 mm 1 mps 650 mmHg 54%
    16:00 +25°C° 0.3 mm 1 mps 650 mmHg 59%
    17:00 +23°C° 0.4 mm 1 mps 650 mmHg 66%
    18:00 +21°C° 0.4 mm 1 mps 649 mmHg 73%
    19:00 +19°C° 0.4 mm 1 mps 649 mmHg 80%
    20:00 +18°C° 0.1 mm 1 mps 649 mmHg 80%
    21:00 +17°C° 0.1 mm 2 mps 649 mmHg 80%
    22:00 +16°C° 0.1 mm 2 mps 649 mmHg 80%
    23:00 +16°C° 0 mm 2 mps 649 mmHg 80%
    Show more